Milton, FL

11:44 AM CDT on August 23, 2017 (GMT -0500)
Whiting Field Naval Air Station (South)

Weather History for KNDZ - November, 2013

Change the Weather History Date:

Friday, November 1, 2013

  Actual Average (KNSE) Record (KNSE)
Temperature  
Mean Temperature 68 °F -  
Max Temperature 75 °F 73 °F 88 °F (2016)
Min Temperature 60 °F 54 °F 39 °F (2014)
Cooling Degree Days 4    
Growing Degree Days 18 (Base 50)    
Moisture  
Dew Point 68 °F    
Average Humidity 91    
Maximum Humidity 94    
Minimum Humidity 83    
Precipitation  
Precipitation 0.74 in - - ()
Sea Level Pressure  
Sea Level Pressure 29.82 in    
Wind  
Wind Speed 6 mph (WSW)    
Max Wind Speed 12 mph    
Max Gust Speed -    
Visibility 8 miles    
Events Rain    
Averages and records for this station are not official NWS values.
T = Trace of Precipitation, MM = Missing Value Source: NWS Daily Summary

Daily Weather History Graph

Daily Weather History Graph

Search for Another Location

Airport or City:

Trip Planner

Search our weather history database for the weather conditions in past years. The results will help you decide how hot, cold, wet, or windy it might be!

Date:

Astronomy

Nov. 01, 2013 Rise Set
Actual Time 7:03 AM CDT 5:59 PM CDT
Civil Twilight 6:38 AM CDT 6:24 PM CDT
Nautical Twilight 6:09 AM CDT 6:53 PM CDT
Astronomical Twilight 5:41 AM CDT 7:21 PM CDT
Moon 5:02 AM CDT (11/1) 4:47 PM CDT (11/1)
Length of Visible Light 11h 46m
Length of Day
10h 56m
Waning Crescent, 4% of the Moon is Illuminated
Nov 1
Waning Crescent
Nov 3
New
Nov 9
First Quarter
Nov 17
Full
Nov 25
Last Quarter

Hourly Weather History & Observations

Time (CDT) Temp. Dew Point Humidity Pressure Visibility Wind Dir Wind Speed Gust Speed Precip Events Conditions
12:56 AM 75.0 °F 71.1 °F 87% 29.81 in 10.0 mi South 10.4 mph - N/A   Overcast
1:56 AM 75.0 °F 72.0 °F 90% 29.80 in 10.0 mi South 9.2 mph - 0.04 in Rain Light Rain
2:03 AM 75.2 °F 71.6 °F 89% 29.85 in 10.0 mi SSW 5.8 mph - 0.00 in Rain Light Rain
2:26 AM 75.2 °F 71.6 °F 89% 29.83 in 10.0 mi South 11.5 mph - 0.01 in Rain Light Rain
2:56 AM 75.0 °F 73.0 °F 94% 29.79 in 10.0 mi Variable 4.6 mph - 0.01 in   Partly Cloudy
3:05 AM 75.2 °F 73.4 °F 94% 29.82 in 10.0 mi South 8.1 mph - N/A   Mostly Cloudy
3:48 AM 75.2 °F 71.6 °F 89% 29.82 in 10.0 mi SSW 6.9 mph - N/A   Overcast
3:56 AM 75.9 °F 72.0 °F 87% 29.78 in 10.0 mi SSW 6.9 mph - N/A   Mostly Cloudy
4:06 AM 75.2 °F 71.6 °F 89% 29.82 in 10.0 mi Variable 6.9 mph - N/A   Mostly Cloudy
4:40 AM 75.2 °F 73.4 °F 94% 29.82 in 10.0 mi Variable 4.6 mph - N/A   Overcast
4:45 AM 75.2 °F 73.4 °F 94% 29.82 in 10.0 mi SSW 5.8 mph - N/A   Overcast
4:54 AM 75.2 °F 73.4 °F 94% 29.82 in 10.0 mi SSW 5.8 mph - N/A   Overcast
4:56 AM 75.9 °F 73.0 °F 91% 29.78 in 10.0 mi SSW 8.1 mph - N/A   Overcast
5:16 AM 75.2 °F 73.4 °F 94% 29.82 in 10.0 mi SSW 5.8 mph - N/A   Overcast
5:24 AM 75.2 °F 73.4 °F 94% 29.82 in 10.0 mi SSW 5.8 mph - N/A   Overcast
5:56 AM 75.9 °F 73.0 °F 91% 29.78 in 10.0 mi SW 4.6 mph - 0.00 in Rain Light Rain
6:10 AM 75.2 °F 73.4 °F 94% 29.82 in 10.0 mi SSW 4.6 mph - 0.00 in   Overcast
6:56 AM 75.9 °F 72.0 °F 87% 29.78 in 10.0 mi SSW 3.5 mph - 0.00 in   Overcast
7:26 AM 75.2 °F 71.6 °F 89% 29.82 in 7.0 mi SW 4.6 mph - 0.07 in Rain Light Rain
7:36 AM 73.4 °F 71.6 °F 94% 29.83 in 7.0 mi Variable 5.8 mph - 0.33 in Rain Heavy Rain
7:38 AM 73.4 °F 71.6 °F 94% 29.83 in 1.5 mi SSW 6.9 mph - 0.34 in Rain Heavy Rain
7:42 AM 73.4 °F 71.6 °F 94% 29.83 in 3.0 mi West 5.8 mph - 0.36 in Rain Heavy Rain
7:56 AM 73.9 °F 71.1 °F 91% 29.79 in 1.5 mi West 5.8 mph - 0.49 in Rain Heavy Rain
8:15 AM 73.4 °F 71.6 °F 94% 29.84 in 6.0 mi Variable 3.5 mph - 0.02 in Rain Light Rain
8:38 AM 73.4 °F 71.6 °F 94% 29.84 in 5.0 mi NW 5.8 mph - 0.04 in Rain Light Rain
8:56 AM 73.0 °F 70.0 °F 90% 29.81 in 5.0 mi Calm Calm - 0.05 in Rain Light Rain
9:09 AM 73.4 °F 69.8 °F 88% 29.85 in 3.0 mi North 4.6 mph - 0.05 in Rain Light Rain
9:56 AM 70.0 °F 66.9 °F 90% 29.82 in 5.0 mi NW 6.9 mph - 0.06 in Rain Light Rain
10:01 AM 69.8 °F 66.2 °F 88% 29.87 in 10.0 mi NW 8.1 mph - 0.00 in   Overcast
10:03 AM 69.8 °F 66.2 °F 88% 29.87 in 7.0 mi NW 9.2 mph - 0.00 in Rain Light Rain
10:27 AM 69.8 °F 66.2 °F 88% 29.87 in 7.0 mi NNW 11.5 mph - 0.01 in   Overcast
10:56 AM 71.1 °F 66.9 °F 87% 29.82 in 7.0 mi NNW 11.5 mph - 0.01 in   Overcast
11:56 AM 69.1 °F 66.0 °F 90% 29.82 in 10.0 mi North 9.2 mph - N/A   Overcast
12:45 PM 69.8 °F 64.4 °F 83% 29.85 in 10.0 mi North 4.6 mph - 0.00 in   Overcast
12:56 PM 69.1 °F 64.9 °F 87% 29.81 in 8.0 mi NNW 3.5 mph - 0.01 in Rain Light Rain
1:56 PM 69.1 °F 66.0 °F 90% 29.78 in 9.0 mi Calm Calm - 0.03 in Rain Light Rain
2:56 PM 68.0 °F 63.0 °F 84% 29.77 in 7.0 mi Calm Calm - 0.03 in Rain Light Rain
3:05 PM 66.2 °F 62.6 °F 88% 29.80 in 10.0 mi Calm Calm - 0.01 in Rain Light Rain
3:56 PM 68.0 °F 64.9 °F 90% 29.75 in 10.0 mi South 4.6 mph - 0.01 in   Mostly Cloudy
4:16 PM 68.0 °F 64.4 °F 88% 29.80 in 10.0 mi Calm Calm - N/A   Mostly Cloudy
4:56 PM 69.1 °F 64.9 °F 87% 29.76 in 10.0 mi Calm Calm - N/A   Mostly Cloudy
5:04 PM 69.8 °F 66.2 °F 88% 29.80 in 10.0 mi Calm Calm - N/A   Mostly Cloudy
5:56 PM 68.0 °F 64.9 °F 90% 29.77 in 10.0 mi Calm Calm - N/A   Scattered Clouds
6:40 PM 66.2 °F 64.4 °F 94% 29.82 in 1.5 mi Calm Calm - N/A   Clear
6:49 PM 64.4 °F 62.6 °F 94% 29.82 in 10.0 mi Calm Calm - N/A   Scattered Clouds
6:56 PM 64.9 °F 63.0 °F 93% 29.79 in 10.0 mi Calm Calm - N/A   Scattered Clouds
7:16 PM 64.4 °F 62.6 °F 94% 29.83 in 6.0 mi Calm Calm - N/A   Scattered Clouds
7:56 PM 64.9 °F 63.0 °F 93% 29.81 in 10.0 mi Calm Calm - N/A   Scattered Clouds
8:56 PM 64.4 °F 62.6 °F 94% 29.87 in 10.0 mi Variable 3.5 mph - N/A   Scattered Clouds
8:57 PM - - N/A% - - North - - N/A   Unknown
9:56 PM 64.0 °F 62.1 °F 93% 29.85 in 10.0 mi WNW 3.5 mph - N/A   Clear
10:56 PM 63.0 °F 61.0 °F 93% 29.86 in 2.5 mi WNW 3.5 mph - N/A   Clear
11:03 PM 62.6 °F 60.8 °F 94% 29.90 in 2.5 mi WNW 3.5 mph - N/A   Partly Cloudy
11:11 PM 62.6 °F 60.8 °F 94% 29.90 in 1.2 mi NW 3.5 mph - N/A   Clear
11:19 PM 62.6 °F 60.8 °F 94% 29.90 in 3.0 mi NW 4.6 mph - N/A   Clear
11:56 PM 60.1 °F 57.0 °F 90% 29.86 in 10.0 mi NW 5.8 mph - N/A   Clear